Glendive, MT

8:52 AM MST on December 13, 2019 (GMT -0700)
Dawson Community

Weather History for KGDV - October, 2019

Change the Weather History Date:

Tuesday, October 22, 2019

  Actual Average Record
Temperature  
Mean Temperature 40 °F 45 °F  
Max Temperature 43 °F 57 °F 84 °F (2003)
Min Temperature 37 °F 33 °F 6 °F (2002)
Degree Days  
Heating Degree Days 25 20  
Month to date heating degree days 504 338  
Year to date heating degree days 6371 4737  
Since 1 July heating degree days 805 445  
Cooling Degree Days 0 0  
Month to date cooling degree days 0 0  
Year to date cooling degree days 465 382  
Since 1 July cooling degree days 465 382  
Moisture  
Dew Point 33 °F    
Average Humidity 82    
Maximum Humidity 100    
Minimum Humidity 44    
Precipitation  
Precipitation 0.07 in 0.03 in 0.19 in (2012)
Month to date precipitation 0.47 0.87  
Year to date precipitation 17.64 12.53  
Sea Level Pressure  
Sea Level Pressure 29.85 in    
Wind  
Wind Speed 7 mph (WNW)    
Max Wind Speed 12 mph    
Max Gust Speed -    
Visibility 10 miles    
Events Rain    
T = Trace of Precipitation, MM = Missing Value Source: NWS Daily Summary

Daily Weather History Graph

Daily Weather History Graph

Search for Another Location

Airport or City:

Astronomy

Oct. 22, 2019 Rise Set
Actual Time 7:27 AM MDT 5:59 PM MDT
Civil Twilight 6:56 AM MDT 6:30 PM MDT
Nautical Twilight 6:20 AM MDT 7:06 PM MDT
Astronomical Twilight 5:45 AM MDT 7:41 PM MDT
Moon 12:06 AM MDT (10/22) 3:40 PM MDT (10/22)
Length of Visible Light 11h 34m
Length of Day
10h 32m
Last Quarter, 36% of the Moon is Illuminated
Oct 22
Last Quarter
Oct 27
New
Nov 4
First Quarter
Nov 12
Full
Nov 19
Last Quarter

Hourly Weather History & Observations

Time (MDT) Temp. Windchill Dew Point Humidity Pressure Visibility Wind Dir Wind Speed Gust Speed Precip Events Conditions
12:56 AM 32.0 °F 24.8 °F 27.0 °F 82% 30.03 in 10.0 mi NW 8.1 mph - N/A   Clear
2:56 AM 33.1 °F 30.0 °F 27.0 °F 78% 30.01 in 10.0 mi NW 3.5 mph - N/A   Mostly Cloudy
3:56 AM 34.0 °F 27.2 °F 28.0 °F 79% 30.00 in 10.0 mi NW 8.1 mph - N/A   Scattered Clouds
5:56 AM 32.0 °F 23.0 °F 28.0 °F 85% 30.01 in 10.0 mi WNW 11.5 mph - N/A   Clear
6:56 AM 32.0 °F 23.6 °F 28.0 °F 85% 30.02 in 10.0 mi WNW 10.4 mph - N/A   Clear
7:56 AM 33.1 °F 25.5 °F 28.0 °F 82% 30.01 in 10.0 mi NW 9.2 mph - N/A   Clear
8:56 AM 37.9 °F 32.7 °F 30.0 °F 73% 29.99 in 10.0 mi NW 6.9 mph - N/A   Clear
9:56 AM 44.1 °F 39.5 °F 32.0 °F 63% 29.97 in 10.0 mi WNW 8.1 mph - N/A   Clear
10:56 AM 46.9 °F - 30.9 °F 54% 29.94 in 10.0 mi North 3.5 mph - N/A   Clear
11:56 AM 50.0 °F - 28.9 °F 44% 29.92 in 10.0 mi SSW 4.6 mph - N/A   Clear
12:56 PM 48.0 °F - 33.1 °F 56% 29.90 in 10.0 mi SSE 11.5 mph - N/A   Overcast
5:56 PM 42.1 °F 37.1 °F 37.9 °F 85% 29.73 in 10.0 mi East 8.1 mph - N/A   Overcast
6:56 PM 41.0 °F 38.0 °F 37.9 °F 89% 29.74 in 10.0 mi NE 4.6 mph - 0.01 in Rain Rain
7:56 PM 39.9 °F 35.1 °F 37.9 °F 93% 29.70 in 10.0 mi ESE 6.9 mph - 0.07 in   Mostly Cloudy
8:56 PM 37.9 °F 35.5 °F 37.0 °F 97% 29.70 in 10.0 mi SE 3.5 mph - N/A   Scattered Clouds
9:56 PM 39.9 °F - 37.9 °F 93% 29.70 in 10.0 mi Calm Calm - N/A   Overcast
10:13 PM 39.2 °F 37.0 °F 37.4 °F 93% 29.71 in 10.0 mi South 3.5 mph - N/A   Overcast
10:56 PM 39.9 °F 35.8 °F 37.9 °F 93% 29.70 in 10.0 mi SSW 5.8 mph - 0.00 in Rain Light Rain
11:24 PM 39.2 °F 37.0 °F 37.4 °F 93% 29.70 in 6.0 mi SSW 3.5 mph - 0.01 in Rain Light Rain
11:52 PM 39.2 °F 33.6 °F 39.2 °F 100% 29.70 in 10.0 mi WNW 8.1 mph - 0.07 in Rain Light Rain
11:56 PM 39.9 °F 33.9 °F 39.0 °F 97% 29.70 in 10.0 mi WNW 9.2 mph - 0.08 in Rain Light Rain